Location: *
(31.2983°S, 151.4094°E)
Time: 01:29:46
(UTC+00:00)

FENGYUN 3A - Pass Details

Date: 25 August 2019
Orbit: 824 x 836 km, 98.4° (Epoch: 23 October)

Event Time Altitude Azimuth Distance (km) Brightness Sun altitude
Rises 19:18:21 0° 358° (N) 3,351 6.9 -13.6°
Reaches altitude 10° 19:20:47 10° 352° (N) 2,427 6.1 -13.1°
Maximum altitude 19:25:55 45° 279° (W) 1,125 3.9 -12.0°
Drops below altitude 10° 19:31:09 10° 207° (SSW) 2,464 5.8 -10.9°
Sets 19:33:38 0° 200° (SSW) 3,407 6.6 -10.3°
